Location: Gorze? G�rny
(49.8500°N, 19.5000°E)
Time: 11:51:14
(UTC+00:00)

Okean 1-7 - Visible Passes

Search period start: 16 September 2021 00:00
Search period end: 26 September 2021 00:00
Orbit: 591 x 617 km, 82.5° (Epoch: 15 September)

Date Brightness Start Highest point End Pass type
(mag) Time Alt. Az. Time Alt. Az. Time Alt. Az.
16 Sep 4.5 17:21:05 10° NNW 17:25:17 44° W 17:29:28 10° SSW visible
17 Sep 5.4 17:34:04 10° NNW 17:37:51 29° W 17:41:37 10° SSW visible
18 Sep 6.1 17:47:15 10° NW 17:50:21 19° W 17:53:26 10° SW visible
19 Sep 6.6 18:00:59 10° WNW 18:02:47 12° W 18:04:34 10° WSW visible
22 Sep 7.1 03:46:11 10° E 03:47:31 11° E 03:48:51 10° ENE visible
23 Sep 6.4 03:57:03 10° SE 03:59:56 18° E 04:02:50 10° NE visible
23 Sep 6.4 17:13:19 10° NW 17:16:12 17° W 17:19:05 10° SW visible
24 Sep 7.0 17:27:20 10° WNW 17:28:37 11° W 17:29:54 10° W visible
